#timestamp,LO_Frequency,Hit,StdDev 
1684868415.1,286047000.7,N
1684868435.9,286047001.0,N
1684868455.7,286047001.2,N
1684868475.5,286047001.2,N
1684868495.4,286047001.2,N
1684868515.2,286047000.5,N
1684868535.0,286047000.7,N
1684868535.9,286047000.7,N
1684868555.8,286047000.5,N
1684868575.6,286047000.7,N
1684868595.5,286047000.4,N
1684868615.3,286047000.8,N
1684868635.1,286047001.2,N
1684868655.9,286047001.1,N
1684868675.7,286047000.5,N
1684868695.6,286047001.1,N
1684868715.4,286047000.5,N
1684868735.2,286046998.1,N
1684868755.1,286046998.3,N
1684868756.0,286046998.3,N
1684868775.8,286047001.0,N
1684868795.6,286046998.5,N
1684868815.5,286047001.0,N
1684868835.3,286046999.3,N
1684868855.2,286046999.2,N
1684868875.9,286046998.5,N
1684868895.7,286047001.1,N
1684868915.6,286046999.0,N
1684868935.4,286046998.1,N
1684868955.2,286046998.2,N
1684868975.1,286046998.2,N
1684868976.0,286046998.2,N
1684868995.8,286046998.3,N
1684869015.7,286047001.0,N
1684869035.5,286047000.9,N
1684869055.3,286047001.1,N
1684869075.2,286047000.6,N
1684869095.0,286047000.4,N
1684869095.9,286047000.4,N
1684869115.7,286047000.9,N
1684869135.6,286047000.9,N
1684869155.4,286046999.8,N
1684869175.3,286046999.9,N
1684869195.1,286047000.7,N
1684869215.8,286047001.1,N
1684869235.7,286047000.7,N
1684869255.5,286047001.0,N
1684869275.4,286047000.7,N
1684869295.2,286047000.7,N
1684869315.0,286046998.6,N
1684869315.9,286046998.6,N
1684869335.8,286047001.0,N
1684869355.6,286047000.4,N
1684869375.5,286047000.5,N
1684869395.3,286046999.8,N
1684869415.1,286047000.5,N
1684869435.9,286047000.6,N
1684869455.7,286047002.5,N
1684869475.5,286047000.0,N
1684869495.4,286047002.2,N
1684869515.2,286047001.0,N
1684869535.1,286047000.0,N
1684869536.0,286047000.0,N
1684869555.8,286047002.1,N
1684869575.6,286047001.5,N
1684869595.5,286047001.8,N
1684869615.3,286047002.6,N
1684869635.1,286046999.9,N
1684869655.9,286047002.2,N
1684869675.7,286047002.6,N
1684869695.6,286046999.8,N
1684869715.4,286046999.7,N
1684869735.2,286046999.7,N
1684869755.1,286047002.0,N
1684869756.0,286047002.0,N
1684869775.8,286047002.6,N
1684869795.6,286047001.7,N
1684869815.5,286047004.4,Y
1684869835.3,286047000.4,P
1684869855.2,286047000.3,N
1684869875.9,286047000.6,N
1684869895.7,286046998.2,Y
1684869915.6,286046998.8,P
1684869935.4,286047000.8,N
1684869955.2,286046999.4,N
1684869975.1,286046999.0,N
1684869976.0,286046999.0,N
1684869995.8,286046998.6,N
1684870015.7,286046998.2,N
1684870035.5,286046998.9,N
1684870055.3,286046998.1,N
1684870075.2,286047001.1,N
1684870095.0,286047000.5,N
1684870095.9,286047000.5,N
1684870115.8,286046999.0,N
1684870135.6,286046997.4,N
1684870155.5,286046997.5,N
1684870175.3,286046997.3,N
1684870195.1,286046997.0,N
1684870215.9,286046997.3,N
1684870235.7,286046999.1,N
1684870255.5,286046998.8,N
1684870275.4,286046997.7,N
1684870295.2,286046997.6,N
1684870315.1,286046996.7,N
1684870316.0,286046996.7,N
1684870335.8,286046997.0,N
1684870355.6,286046996.5,N
1684870375.5,286046999.3,N
1684870395.3,286046999.4,N
1684870415.1,286046996.7,N
1684870435.9,286046997.0,N
1684870455.7,286046996.6,N
1684870475.6,286046999.6,N
1684870495.4,286046996.8,N
1684870515.2,286046996.8,N
1684870535.1,286046999.5,N
1684870536.0,286046999.5,N
1684870555.8,286046997.4,N
1684870575.6,286046997.5,N
1684870595.5,286046997.7,N
1684870615.3,286046997.3,N
1684870635.2,286046997.8,N
1684870655.9,286046997.2,N
1684870675.7,286046997.2,N
1684870695.6,286046997.6,N
1684870715.4,286046995.7,Y
1684870735.3,286046999.4,P
1684870755.1,286046999.6,N
1684870756.0,286046999.6,N
1684870775.8,286046999.5,N
1684870795.7,286046997.3,Y
1684870815.5,286046999.2,P
1684870835.3,286046996.6,P
1684870855.2,286046996.9,N
1684870875.0,286046997.6,N
1684870875.9,286046997.6,N
1684870895.8,286046997.4,N
1684870915.6,286046997.2,N
1684870935.4,286046997.1,Y
1684870955.3,286046998.6,P
1684870975.1,286047000.8,N
1684870995.9,286046998.8,N
1684871015.7,286046998.5,N
1684871035.5,286046998.3,N
1684871055.4,286046999.6,N
1684871075.2,286046997.1,Y
1684871095.1,286046999.0,P
1684871096.0,286046999.0,P
1684871115.8,286046998.3,P
1684871135.6,286046998.2,Y
1684871155.5,286047000.5,P
1684871175.3,286047000.7,N
1684871195.2,286047001.2,N
1684871215.9,286046998.2,N
1684871235.7,286047000.8,N
1684871255.6,286047001.1,N
1684871275.4,286047001.2,N
1684871295.3,286047001.2,N
1684871315.1,286046998.7,N
1684871335.8,286046998.3,N
1684871355.7,286046999.2,N
1684871375.5,286046997.2,N
1684871395.4,286046997.4,N
1684871415.2,286046996.6,N
1684871435.0,286046996.7,N
1684871435.9,286046996.7,N
1684871455.8,286046996.5,N
1684871475.6,286046997.2,N
1684871495.4,286046997.3,N
1684871515.3,286046997.1,N
1684871535.1,286046997.4,N
1684871555.9,286046995.0,N
1684871575.7,286046995.0,N
1684871595.5,286046997.4,N
1684871615.4,286046998.0,N
1684871635.2,286046997.7,N
1684871655.0,286046995.3,N
1684871655.9,286046995.3,N
1684871675.8,286046995.4,N
1684871695.6,286046997.8,N
1684871715.5,286046997.7,N
1684871735.3,286046997.7,N
1684871755.1,286046998.0,N
1684871775.9,286046994.9,Y
1684871795.7,286046996.5,P
1684871815.5,286046997.3,P
1684871835.4,286046996.9,P
1684871855.2,286046999.5,N
1684871875.1,286046999.6,N
1684871876.0,286046999.6,N
1684871895.8,286046999.6,N
1684871915.7,286046996.8,N
1684871935.5,286046998.8,N
1684871955.3,286046999.2,N
1684871975.2,286046996.7,N
1684871995.0,286046997.7,N
1684872025.9,286046997.0,E
